Tracking 22879 objects as of 22-Apr-2021
HD Live streaming from Space Station
objects crossing your sky now

SL-8 DEB

Track SL-8 DEB now!
10-day predictions


NORAD ID: 21936
Int'l Code: 1991-009CD
Perigee: 1,471.3 km
Apogee: 1,895.4 km
Inclination: 74.1 °
Period: 119.9 minutes
Semi major axis: 8054 km
RCS: 0.0437 m2 (small)
Launch date: February 12, 1991
Source: Commonwealth of Independent States (former USSR) (CIS)
Launch site: PLESETSK MISSILE AND SPACE COMPLEX (PKMTR)

Note: This is SATELLITE DEBRIS
aabbcc
Your satellite tracking list
Your tracking list is empty




NASA's NSSDC Master Catalog

Two Line Element Set (TLE):
1 21936U 91009CD  21111.61040590  .00000157  00000-0  19051-2 0  9992
2 21936  74.0636 180.0447 0263318 265.3872 254.9629 12.01038302282750
Source of the keplerian elements: AFSPC